This is the latest recevied weather packets stored in our database for station/object IK1PCD-11. If no packets are shown the sender has not sent any weather packets the latest 10 day(s).
| Time | Temp. | Humidity | Pressure | Rain* | Wind** | Luminosity | Snow |
|---|---|---|---|---|---|---|---|
| 1777255309 | 4.44° C | 95% | 1018.2 hPa | - | - | - | - |
| 1777254409 | 4.44° C | 93% | 1018.2 hPa | - | - | - | - |
| 1777253509 | 4.44° C | 96% | 1018.1 hPa | - | - | - | - |
| 1777252609 | 4.44° C | 96% | 1018.2 hPa | - | - | - | - |
| 1777249909 | 5° C | 96% | 1018.6 hPa | - | - | - | - |
| 1777249009 | 5° C | 96% | 1018.6 hPa | - | - | - | - |
| 1777248108 | 5° C | 97% | 1018.8 hPa | - | - | - | - |
| 1777247208 | 5° C | 99% | 1018.9 hPa | - | - | - | - |
| 1777246308 | 5° C | 99% | 1018.8 hPa | - | - | - | - |
| 1777245408 | 5.56° C | 98% | 1018.8 hPa | - | - | - | - |
| 1777244508 | 5.56° C | 98% | 1018.8 hPa | - | - | - | - |
| 1777243608 | 6.11° C | 99% | 1019 hPa | - | - | - | - |
| 1777242708 | 6.11° C | 99% | 1018.9 hPa | - | - | - | - |
| 1777241808 | 6.11° C | 98% | 1018.8 hPa | - | - | - | - |
| 1777240908 | 6.11° C | 97% | 1018.9 hPa | - | - | - | - |
| 1777240008 | 6.11° C | 95% | 1019 hPa | - | - | - | - |
| 1777239107 | 6.67° C | 96% | 1018.9 hPa | - | - | - | - |
| 1777238207 | 6.67° C | 96% | 1019 hPa | - | - | - | - |
| 1777237307 | 6.67° C | 95% | 1018.9 hPa | - | - | - | - |
| 1777236406 | 7.22° C | 96% | 1018.9 hPa | - | - | - | - |
| 1777235511 | 7.22° C | 95% | 1018.8 hPa | - | - | - | - |
| 1777234611 | 7.78° C | 94% | 1018.8 hPa | - | - | - | - |
| 1777233711 | 7.78° C | 93% | 1018.7 hPa | - | - | - | - |
| 1777232810 | 8.33° C | 93% | 1018.7 hPa | - | - | - | - |
| 1777231910 | 8.89° C | 91% | 1018.5 hPa | - | - | - | - |
* Rain since midnight (hover to see other rain measurements)
** Current wind speed in m/s (hover to see current wind gust speed)